Location: Holyhead Bay
(53.3667°N, 4.6667°W)
Time: 19:08:23
(UTC+00:00)

Cosmos 1763 Rocket - Pass Details

Date: 24 November 2020
Orbit: 732 x 780 km, 74.0° (Epoch: 17 January)

Event Time Altitude Azimuth Distance (km) Brightness Sun altitude
Rises 16:40:19 0° 204° (SSW) 3,165 7.6 -4.7°
Reaches altitude 10° 16:42:39 10° 204° (SSW) 2,241 6.8 -5.0°
Maximum altitude 16:47:44 89° 118° (ESE) 742 3.5 -5.6°
Drops below altitude 10° 16:52:50 10° 26° (NNE) 2,246 5.5 -6.3°
Enters shadow 16:54:48 - 27° (NNE) 3,021 6.1 -6.6°
